Regional Weather Roundup
Issued by NWS

Home | Current Version | Previous Version | Text Only | Print | Product List | Glossary On
Versions: 1 2 3 4 5 6 7 8 9 10 11 12 13 14 15 16 17 18 19 20 21 22 23 24 25 26 27 28 29 30 31 32 33 34 35 36 37 38 39 40 41 42 43 44 45 46 47 48 49 50
000
ASUS43 KMPX 211910
RWRMN
WEATHER ROUNDUP FOR MINNESOTA
NATIONAL WEATHER SERVICE TWIN CITIES/CHANHASSEN MN
200 PM CDT WED JUN 21 2017


NOTE: "FAIR" INDICATES FEW OR NO CLOUDS BELOW 12,000 FEET WITH NO
SIGNIFICANT WEATHER AND/OR OBSTRUCTIONS TO VISIBILITY. N/A MEANS
CURRENT SKY AND/OR WEATHER CONDITIONS ARE NOT AVAILABLE.

MNZ060>063-068>070-212000-
   Twin Cities Metro

CITY           SKY/WX    TMP DP  RH WIND       PRES   REMARKS
TWIN CITIES    MOSUNNY   78  52  40 S12G23    29.81F
ST PAUL        SUNNY     78  55  44 SE14G22   29.81F
CRYSTAL        SUNNY     78  50  37 SE14G22   29.79F
BLAINE         MOSUNNY   81  52  36 SE12G17   29.81F
LAKEVILLE      MOSUNNY   77  55  47 SE10G18   29.82S
EDEN PRAIRIE   PTSUNNY   80  55  42 SE15G23   29.80F
SOUTH ST PAUL  SUNNY     76  51  40 SE9G18    29.81F
LAKE ELMO      FAIR      77  55  47 SE10G17   29.83F
$$
MNZ001>005-007-008-013>017-022>024-027-028-212000-
   Northwest Minnesota

CITY           SKY/WX    TMP DP  RH WIND       PRES   REMARKS
BEMIDJI        CLOUDY    70  51  51 S10       29.78F
HALLOCK        MOSUNNY   70  59  68 SE23      29.65F
ROSEAU         PTSUNNY   63  55  77 SE10      29.74F
WARROAD        LGT RAIN  64  57  77 S10       29.76F
THIEF RVR FALL CLOUDY    69  57  65 SE17G24   29.73F
CROOKSTON      PTSUNNY   72  61  68 SE18      29.69F
FOSSTON        MOSUNNY   68  63  83 CALM      29.75F
DETROIT LAKES  SUNNY     77  52  41 S15       29.76F
MOORHEAD       SUNNY     81  54  39 SE17G24   29.70F
PARK RAPIDS    PTSUNNY   75  51  43 S14       29.78F
MAHNOMEN       MOCLDY    72  54  53 SE9       29.72F
$$
MNZ006-009>011-018-025>026-212000-
   North Central Minnesota

CITY           SKY/WX    TMP DP  RH WIND       PRES   REMARKS
BAUDETTE       LGT RAIN  64  54  69 S7        29.79S
FLAG ISLAND    LGT RAIN  63  54  72 S10       29.77R
INTL FALLS     PTSUNNY   70  48  45 SW7       29.79F
WASKISH        CLOUDY    66  52  59 SE3       29.79F
BIG FORK       CLOUDY    72  52  49 S7        29.81S
LONGVILLE      SUNNY     73  54  49 SE12G18   29.80F
GRAND RAPIDS   SUNNY     74  52  46 S10       29.82F
CRANE LAKE     CLOUDY    72  46  40 S7        29.83F
ORR            MOSUNNY   70  45  40 S10       29.79F
COOK           CLOUDY    70  48  46 E5        29.82F
WALKER         MOCLDY    70  52  52 S10       29.79F
$$
MNZ012-019>021-037-212000-
   Northeast Minnesota

CITY           SKY/WX    TMP DP  RH WIND       PRES   REMARKS
DULUTH         MOSUNNY   71  52  50 S10       29.85F
ELY            MOSUNNY   72  45  37 S6        29.84F
HIBBING        SUNNY     72  47  40 S8G17     29.81F
EVELETH        MOSUNNY   73  39  29 S13         N/A
DULUTH HARBOR  SUNNY     64  57  77 NE13      29.85F
TWO HARBORS    SUNNY     73  52  46 S6        29.85F
SILVER BAY     MOSUNNY   70  48  46 S7        29.86F
GRAND MARAIS     N/A     52  47  83 SW5       29.88F
G MARAIS ARPRT SUNNY     64  41  42 S5        29.91F
$$
MNZ029>031-032-039>041-046>048-054>057-064-212000-
   West Central Minnesota

CITY           SKY/WX    TMP DP  RH WIND       PRES   REMARKS
FERGUS FALLS   SUNNY     79  54  41 S16       29.71F
WHEATON        SUNNY     81  55  41 S12       29.75F
MORRIS         SUNNY     82  55  39 S15       29.75F
ALEXANDRIA     SUNNY     78  53  41 S16G25    29.80S
ELBOW LAKE     FAIR      79  56  45 S15G23    29.77F
WADENA         SUNNY     75  54  46 S14       29.78F
GLENWOOD       SUNNY     79  55  44 S16G28    29.79F
APPLETON       SUNNY     81  59  47 S9        29.75F
BENSON         SUNNY     81  57  44 S16       29.78F
ORTONVILLE     SUNNY     81  63  54 S8        29.74F
MADISON        SUNNY     82  63  51 S10       29.76S
WILLMAR        FAIR      81  59  47 S9G17     29.80S
$$
MNZ033>034-036-042>043-049>051-058-059-212000-
   Central Minnesota

CITY           SKY/WX    TMP DP  RH WIND       PRES   REMARKS
ST CLOUD       SUNNY     80  52  37 S13G20    29.80S
SAUK CENTRE    FAIR      78  54  42 SE15      29.79F
PAYNESVILLE    SUNNY     80  52  37 SE14      29.80F
AITKIN         SUNNY     73  54  49 S15G21    29.80F
PINE RIVER     SUNNY     73  55  53 S9G16     29.83F
BRAINERD       SUNNY     75  53  46 S8        29.80F
STAPLES        SUNNY     75  48  38 SE12G20   29.78F
LONG PRAIRIE   FAIR      77  52  41 E15       29.80S
LITTLE FALLS   MOSUNNY   77  50  38 SE12      29.80S
LITCHFIELD     SUNNY     79  57  47 SE12G18   29.80S
BUFFALO        PTSUNNY   77  51  40 E9        29.82R
MAPLE LAKE     SUNNY     80  56  44 SE8       29.82R
HUTCHINSON     MOSUNNY   78  59  52 SE17      29.81S
$$
MNZ037-044-045-052-053-212000-
   East Central Minnesota

CITY           SKY/WX    TMP DP  RH WIND       PRES   REMARKS
PRINCETON      SUNNY     81  54  39 SE9G17    29.81F
MORA           SUNNY     73  50  43 S9        29.83F
CAMBRIDGE      SUNNY     79  57  47 SE9G17    29.80F
RUSH CITY      SUNNY     75  54  46 SE10      29.83F
MOOSE LAKE     MOSUNNY   73  52  46 S8        29.82F
HINCKLEY       FAIR      75  54  46 S10       29.83F
CLOQUET        SUNNY     72  46  40 SE7       29.84F
MCGREGOR       SUNNY     73  52  46 SE12G18   29.83F
$$
MNZ071>073-080-081-089-090-097-098-212000-
   Southwest Minnesota

CITY           SKY/WX    TMP DP  RH WIND       PRES   REMARKS
MONTEVIDEO     SUNNY     81  61  50 SW8G16    29.77F
GRANITE FALLS  SUNNY     80  62  54 SE13G18   29.79F
CANBY          SUNNY     81  63  54 S9G16     29.77F
MARSHALL       SUNNY     76  62  62 S18       29.78F
REDWOOD FALLS  SUNNY     77  58  51 SE15      29.78F
OLIVIA         SUNNY     77  59  53 SE15      29.79S
PIPESTONE      CLOUDY    75  64  69 S8        29.79F
WINDOM         CLOUDY    73  63  68 SE10      29.81F
WORTHINGTON    CLOUDY    74  64  71 SE13      29.79F
JACKSON        CLOUDY    72  61  68 SE12      29.81F
TRACY          SUNNY     75  64  68 S13G20    29.80F
SLAYTON        CLOUDY    71  58  65 SE13      29.81F
$$
MNZ065>067-074>077-082>085-091>093-212000-
   South Central Minnesota

CITY           SKY/WX    TMP DP  RH WIND       PRES   REMARKS
MANKATO        CLOUDY    74  59  59 S14G20    29.82F
NEW ULM        PTSUNNY   73  57  56 SE15      29.80F
ST JAMES       CLOUDY    70  61  73 SE14      29.82F
FAIRMONT       CLOUDY    71  62  73 SE15      29.81F
GLENCOE        SUNNY     80  58  46 SE14      29.80F
FARIBAULT      SUNNY     77  55  47 SE16      29.82F
OWATONNA       MOSUNNY   75  61  60 SE14      29.83F
WASECA         CLOUDY    72  59  64 SE15G21   29.85S
ALBERT LEA     CLOUDY    70  59  68 SE14G20   29.85F
$$
MNZ078>079-086>088-094>096-212000-
   Southeast Minnesota

CITY           SKY/WX    TMP DP  RH WIND       PRES   REMARKS
ROCHESTER      SUNNY     73  56  54 S14G24    29.86F
RED WING       SUNNY     77  50  38 SE14      29.82F
STANTON        SUNNY     77  54  44 SE12      29.81F
DODGE CENTER   MOSUNNY   73  54  49 SE13G18   29.86F
WINONA         SUNNY     73  54  49 S3        29.88F
AUSTIN         CLOUDY    68  57  68 SE13      29.86S
PRESTON        MOSUNNY   72  56  56 SE13      29.88F
$$
ABBREVIATIONS USED IN REMARKS
   TC - TEMPERATURES IN CELSIUS
  WCI - WIND CHILL INDEX
   HX - HEAT INDEX
  VSB - VISIBILITY
$$




USA.gov is the U.S. government's official web portal to all federal, state and local government web resources and services.